Time,TemperatureF,DewpointF,PressureIn,WindDirection,WindDirectionDegrees,WindSpeedMPH,WindSpeedGustMPH,Humidity,HourlyPrecipIn,Conditions,Clouds,dailyrainin,SoftwareType,DateUTC
2013-03-17 01:00:00,55.4,51.3,29.96,South,180,0.0,-999.0,86,0.00,,,0.00,Wunderground v.1.15,2013-03-17 08:00:00,
2013-03-17 01:05:00,55.4,51.3,29.96,South,180,0.0,-999.0,86,0.00,,,0.00,Wunderground v.1.15,2013-03-17 08:05:00,
2013-03-17 01:10:00,55.4,51.3,29.96,South,180,0.0,-999.0,86,0.00,,,0.00,Wunderground v.1.15,2013-03-17 08:10:00,
2013-03-17 01:15:00,55.3,51.2,29.96,South,180,0.0,-999.0,86,0.00,,,0.00,Wunderground v.1.15,2013-03-17 08:15:00,
2013-03-17 01:20:00,55.3,51.2,29.96,South,180,0.0,-999.0,86,0.00,,,0.00,Wunderground v.1.15,2013-03-17 08:20:00,
2013-03-17 01:25:00,55.4,51.3,29.95,ESE,113,1.0,-999.0,86,0.00,,,0.00,Wunderground v.1.15,2013-03-17 08:25:00,
2013-03-17 01:30:00,55.4,51.3,29.95,ESE,113,1.0,-999.0,86,0.00,,,0.00,Wunderground v.1.15,2013-03-17 08:30:00,
2013-03-17 01:35:00,55.5,51.4,29.95,ESE,113,0.0,-999.0,86,0.00,,,0.00,Wunderground v.1.15,2013-03-17 08:35:00,
2013-03-17 01:40:00,55.5,51.4,29.95,ESE,113,0.0,-999.0,86,0.00,,,0.00,Wunderground v.1.15,2013-03-17 08:40:00,
2013-03-17 01:45:00,55.6,51.5,29.95,SSE,158,1.0,-999.0,86,0.00,,,0.00,Wunderground v.1.15,2013-03-17 08:45:00,
2013-03-17 01:50:00,55.6,51.5,29.95,SSE,158,1.0,-999.0,86,0.00,,,0.00,Wunderground v.1.15,2013-03-17 08:50:00,
2013-03-17 01:55:00,55.5,51.4,29.95,South,180,0.0,-999.0,86,0.00,,,0.00,Wunderground v.1.15,2013-03-17 08:55:00,
2013-03-17 02:00:00,55.5,51.4,29.95,South,180,0.0,-999.0,86,0.00,,,0.00,Wunderground v.1.15,2013-03-17 09:00:00,
2013-03-17 02:05:00,55.5,51.4,29.95,South,180,0.0,-999.0,86,0.00,,,0.00,Wunderground v.1.15,2013-03-17 09:05:00,
2013-03-17 02:10:00,55.5,51.4,29.95,South,180,0.0,-999.0,86,0.00,,,0.00,Wunderground v.1.15,2013-03-17 09:10:00,
2013-03-17 02:15:00,55.5,51.4,29.96,South,180,0.0,-999.0,86,0.00,,,0.00,Wunderground v.1.15,2013-03-17 09:15:00,
2013-03-17 02:20:00,55.5,51.4,29.96,South,180,0.0,-999.0,86,0.00,,,0.00,Wunderground v.1.15,2013-03-17 09:20:00,
2013-03-17 02:25:00,55.6,51.5,29.96,South,180,1.0,-999.0,86,0.00,,,0.00,Wunderground v.1.15,2013-03-17 09:25:00,
2013-03-17 02:30:00,55.6,51.5,29.96,South,180,1.0,-999.0,86,0.00,,,0.00,Wunderground v.1.15,2013-03-17 09:30:00,
2013-03-17 02:35:00,55.6,51.5,29.95,South,180,0.0,-999.0,86,0.00,,,0.00,Wunderground v.1.15,2013-03-17 09:35:00,
2013-03-17 02:40:00,55.6,51.5,29.95,South,180,0.0,-999.0,86,0.00,,,0.00,Wunderground v.1.15,2013-03-17 09:40:00,
2013-03-17 02:45:00,55.7,51.6,29.96,SSE,158,1.0,-999.0,86,0.00,,,0.00,Wunderground v.1.15,2013-03-17 09:45:00,
2013-03-17 02:50:00,55.7,51.6,29.96,SSE,158,1.0,-999.0,86,0.00,,,0.00,Wunderground v.1.15,2013-03-17 09:50:00,
2013-03-17 02:55:00,55.7,51.6,29.95,SSE,158,0.0,-999.0,86,0.00,,,0.00,Wunderground v.1.15,2013-03-17 09:55:00,
2013-03-17 03:00:00,55.7,51.6,29.95,SSE,158,0.0,-999.0,86,0.00,,,0.00,Wunderground v.1.15,2013-03-17 10:00:00,
2013-03-17 03:05:00,55.6,51.5,29.95,East,90,2.0,-999.0,86,0.00,,,0.00,Wunderground v.1.15,2013-03-17 10:05:00,
2013-03-17 03:10:00,55.6,51.5,29.95,East,90,2.0,-999.0,86,0.00,,,0.00,Wunderground v.1.15,2013-03-17 10:10:00,
2013-03-17 03:15:00,55.5,51.4,29.94,East,90,2.0,-999.0,86,0.00,,,0.00,Wunderground v.1.15,2013-03-17 10:15:00,
2013-03-17 03:20:00,55.5,51.4,29.94,East,90,2.0,-999.0,86,0.00,,,0.00,Wunderground v.1.15,2013-03-17 10:20:00,
2013-03-17 03:25:00,55.5,51.4,29.94,East,90,3.0,-999.0,86,0.00,,,0.00,Wunderground v.1.15,2013-03-17 10:25:00,
2013-03-17 03:30:00,55.5,51.4,29.94,East,90,3.0,-999.0,86,0.00,,,0.00,Wunderground v.1.15,2013-03-17 10:30:00,
2013-03-17 03:35:00,55.4,51.3,29.94,East,90,1.0,-999.0,86,0.00,,,0.00,Wunderground v.1.15,2013-03-17 10:35:00,
2013-03-17 03:40:00,55.4,51.3,29.94,East,90,1.0,-999.0,86,0.00,,,0.00,Wunderground v.1.15,2013-03-17 10:40:00,
2013-03-17 03:45:00,55.5,51.1,29.94,East,90,1.0,-999.0,85,0.00,,,0.00,Wunderground v.1.15,2013-03-17 10:45:00,
2013-03-17 03:50:00,55.5,51.1,29.94,East,90,1.0,-999.0,85,0.00,,,0.00,Wunderground v.1.15,2013-03-17 10:50:00,
2013-03-17 03:55:00,55.4,51.0,29.94,East,90,2.0,-999.0,85,0.00,,,0.00,Wunderground v.1.15,2013-03-17 10:55:00,
2013-03-17 04:00:00,55.4,51.0,29.94,East,90,2.0,-999.0,85,0.00,,,0.00,Wunderground v.1.15,2013-03-17 11:00:00,
2013-03-17 04:05:00,55.3,50.9,29.94,East,90,1.0,-999.0,85,0.00,,,0.00,Wunderground v.1.15,2013-03-17 11:05:00,
2013-03-17 04:10:00,55.3,50.9,29.94,East,90,1.0,-999.0,85,0.00,,,0.00,Wunderground v.1.15,2013-03-17 11:10:00,
2013-03-17 04:15:00,55.3,50.9,29.93,East,90,1.0,-999.0,85,0.00,,,0.00,Wunderground v.1.15,2013-03-17 11:15:00,
2013-03-17 04:20:00,55.3,50.9,29.93,East,90,1.0,-999.0,85,0.00,,,0.00,Wunderground v.1.15,2013-03-17 11:20:00,
2013-03-17 04:25:00,55.3,50.9,29.93,ESE,113,0.0,-999.0,85,0.00,,,0.00,Wunderground v.1.15,2013-03-17 11:25:00,
2013-03-17 04:30:00,55.3,50.9,29.93,ESE,113,0.0,-999.0,85,0.00,,,0.00,Wunderground v.1.15,2013-03-17 11:30:00,
2013-03-17 04:35:00,55.3,50.9,29.93,SE,135,0.0,-999.0,85,0.00,,,0.00,Wunderground v.1.15,2013-03-17 11:35:00,
2013-03-17 04:40:00,55.3,50.9,29.93,SE,135,0.0,-999.0,85,0.00,,,0.00,Wunderground v.1.15,2013-03-17 11:40:00,
2013-03-17 04:45:00,55.3,50.9,29.93,SE,135,0.0,-999.0,85,0.00,,,0.00,Wunderground v.1.15,2013-03-17 11:45:00,
2013-03-17 04:50:00,55.3,50.9,29.93,SE,135,0.0,-999.0,85,0.00,,,0.00,Wunderground v.1.15,2013-03-17 11:50:00,
2013-03-17 04:55:00,55.3,50.9,29.94,SE,135,0.0,-999.0,85,0.00,,,0.00,Wunderground v.1.15,2013-03-17 11:55:00,
2013-03-17 05:00:00,55.3,50.9,29.94,SE,135,0.0,-999.0,85,0.00,,,0.00,Wunderground v.1.15,2013-03-17 12:00:00,
2013-03-17 05:05:00,55.4,51.0,29.94,SE,135,0.0,-999.0,85,0.00,,,0.00,Wunderground v.1.15,2013-03-17 12:05:00,
2013-03-17 05:10:00,55.4,51.0,29.94,SE,135,0.0,-999.0,85,0.00,,,0.00,Wunderground v.1.15,2013-03-17 12:10:00,
2013-03-17 05:15:00,55.4,51.0,29.94,SE,135,0.0,-999.0,85,0.00,,,0.00,Wunderground v.1.15,2013-03-17 12:15:00,
2013-03-17 05:20:00,55.4,51.0,29.94,SE,135,0.0,-999.0,85,0.00,,,0.00,Wunderground v.1.15,2013-03-17 12:20:00,
2013-03-17 05:25:00,55.4,51.0,29.94,SE,135,0.0,-999.0,85,0.00,,,0.00,Wunderground v.1.15,2013-03-17 12:25:00,
2013-03-17 05:30:00,55.4,51.0,29.94,SE,135,0.0,-999.0,85,0.00,,,0.00,Wunderground v.1.15,2013-03-17 12:30:00,
2013-03-17 05:35:00,55.4,51.0,29.94,SE,135,0.0,-999.0,85,0.00,,,0.00,Wunderground v.1.15,2013-03-17 12:35:00,
2013-03-17 05:40:00,55.4,51.0,29.94,SE,135,0.0,-999.0,85,0.00,,,0.00,Wunderground v.1.15,2013-03-17 12:40:00,
2013-03-17 05:45:00,55.4,51.0,29.95,SE,135,0.0,-999.0,85,0.00,,,0.00,Wunderground v.1.15,2013-03-17 12:45:00,
2013-03-17 05:50:00,55.4,51.0,29.95,SE,135,0.0,-999.0,85,0.00,,,0.00,Wunderground v.1.15,2013-03-17 12:50:00,
2013-03-17 05:55:00,55.4,51.0,29.95,SE,135,0.0,-999.0,85,0.00,,,0.00,Wunderground v.1.15,2013-03-17 12:55:00,
2013-03-17 06:00:00,55.4,51.0,29.95,SE,135,0.0,-999.0,85,0.00,,,0.00,Wunderground v.1.15,2013-03-17 13:00:00,
2013-03-17 06:05:00,55.4,51.0,29.95,SE,135,0.0,-999.0,85,0.00,,,0.00,Wunderground v.1.15,2013-03-17 13:05:00,
2013-03-17 06:10:00,55.4,51.0,29.95,SE,135,0.0,-999.0,85,0.00,,,0.00,Wunderground v.1.15,2013-03-17 13:10:00,
2013-03-17 06:15:00,55.3,50.9,29.95,SE,135,0.0,-999.0,85,0.00,,,0.00,Wunderground v.1.15,2013-03-17 13:15:00,
2013-03-17 06:20:00,55.3,50.9,29.95,SE,135,0.0,-999.0,85,0.00,,,0.00,Wunderground v.1.15,2013-03-17 13:20:00,
2013-03-17 06:25:00,55.2,50.8,29.95,N/A,-737280,0.0,-999.0,85,0.00,,,0.00,Wunderground v.1.15,2013-03-17 13:25:00,
2013-03-17 06:30:00,55.2,50.8,29.95,N/A,-737280,0.0,-999.0,85,0.00,,,0.00,Wunderground v.1.15,2013-03-17 13:30:00,
2013-03-17 06:35:00,55.0,50.6,29.95,N/A,-737280,0.0,-999.0,85,0.00,,,0.00,Wunderground v.1.15,2013-03-17 13:35:00,
2013-03-17 06:40:00,55.0,50.6,29.95,N/A,-737280,0.0,-999.0,85,0.00,,,0.00,Wunderground v.1.15,2013-03-17 13:40:00,
2013-03-17 06:45:00,54.8,50.4,29.96,N/A,-737280,0.0,-999.0,85,0.00,,,0.00,Wunderground v.1.15,2013-03-17 13:45:00,
2013-03-17 06:50:00,54.8,50.4,29.96,N/A,-737280,0.0,-999.0,85,0.00,,,0.00,Wunderground v.1.15,2013-03-17 13:50:00,
2013-03-17 06:55:00,54.7,50.3,29.96,N/A,-737280,0.0,-999.0,85,0.00,,,0.00,Wunderground v.1.15,2013-03-17 13:55:00,
2013-03-17 07:00:00,54.7,50.3,29.96,N/A,-737280,0.0,-999.0,85,0.00,,,0.00,Wunderground v.1.15,2013-03-17 14:00:00,
2013-03-17 07:05:00,54.5,50.4,29.96,N/A,-737280,0.0,-999.0,86,0.00,,,0.00,Wunderground v.1.15,2013-03-17 14:05:00,
2013-03-17 07:10:00,54.5,50.4,29.96,N/A,-737280,0.0,-999.0,86,0.00,,,0.00,Wunderground v.1.15,2013-03-17 14:10:00,
2013-03-17 07:15:00,54.3,50.2,29.96,SE,135,0.0,-999.0,86,0.00,,,0.00,Wunderground v.1.15,2013-03-17 14:15:00,
2013-03-17 07:20:00,54.3,50.2,29.96,SE,135,0.0,-999.0,86,0.00,,,0.00,Wunderground v.1.15,2013-03-17 14:20:00,
2013-03-17 07:25:00,54.0,49.9,29.97,SE,135,0.0,-999.0,86,0.00,,,0.00,Wunderground v.1.15,2013-03-17 14:25:00,
2013-03-17 07:30:00,54.0,49.9,29.97,SE,135,0.0,-999.0,86,0.00,,,0.00,Wunderground v.1.15,2013-03-17 14:30:00,
2013-03-17 07:35:00,54.1,50.3,29.96,WNW,293,0.0,-999.0,87,0.00,,,0.00,Wunderground v.1.15,2013-03-17 14:35:00,
2013-03-17 07:40:00,54.1,50.3,29.96,WNW,293,0.0,-999.0,87,0.00,,,0.00,Wunderground v.1.15,2013-03-17 14:40:00,
2013-03-17 07:45:00,54.5,50.7,29.96,WNW,293,0.0,-999.0,87,0.00,,,0.00,Wunderground v.1.15,2013-03-17 14:45:00,
2013-03-17 07:50:00,54.5,50.7,29.96,WNW,293,0.0,-999.0,87,0.00,,,0.00,Wunderground v.1.15,2013-03-17 14:50:00,
2013-03-17 07:55:00,55.0,50.9,29.96,WNW,293,0.0,-999.0,86,0.00,,,0.00,Wunderground v.1.15,2013-03-17 14:55:00,
2013-03-17 08:00:00,55.0,50.9,29.96,WNW,293,0.0,-999.0,86,0.00,,,0.00,Wunderground v.1.15,2013-03-17 15:00:00,
2013-03-17 08:05:00,55.7,51.6,29.97,WNW,293,0.0,-999.0,86,0.00,,,0.00,Wunderground v.1.15,2013-03-17 15:05:00,
2013-03-17 08:10:00,55.7,51.6,29.97,WNW,293,0.0,-999.0,86,0.00,,,0.00,Wunderground v.1.15,2013-03-17 15:10:00,
2013-03-17 08:15:00,56.3,51.5,29.97,WNW,293,0.0,-999.0,84,0.00,,,0.00,Wunderground v.1.15,2013-03-17 15:15:00,
2013-03-17 08:20:00,56.3,51.5,29.97,WNW,293,0.0,-999.0,84,0.00,,,0.00,Wunderground v.1.15,2013-03-17 15:20:00,
2013-03-17 08:25:00,56.7,51.9,29.97,WNW,293,0.0,-999.0,84,0.00,,,0.00,Wunderground v.1.15,2013-03-17 15:25:00,
2013-03-17 08:35:00,57.4,51.9,29.97,WNW,293,1.0,-999.0,82,0.00,,,0.00,Wunderground v.1.15,2013-03-17 15:35:00,
2013-03-17 08:40:00,57.4,51.9,29.97,WNW,293,1.0,-999.0,82,0.00,,,0.00,Wunderground v.1.15,2013-03-17 15:40:00,
2013-03-17 08:45:00,57.9,52.1,29.98,WNW,293,1.0,-999.0,81,0.00,,,0.00,Wunderground v.1.15,2013-03-17 15:45:00,
2013-03-17 08:55:00,58.5,52.4,29.98,South,180,1.0,-999.0,80,0.00,,,0.00,Wunderground v.1.15,2013-03-17 15:55:00,
2013-03-17 09:10:00,59.0,52.5,29.97,SW,225,1.0,-999.0,79,0.00,,,0.00,Wunderground v.1.15,2013-03-17 16:10:00,
2013-03-17 09:15:00,59.2,52.7,29.98,East,90,1.0,-999.0,79,0.00,,,0.00,Wunderground v.1.15,2013-03-17 16:15:00,
2013-03-17 09:20:00,59.2,52.7,29.98,East,90,1.0,-999.0,79,0.00,,,0.00,Wunderground v.1.15,2013-03-17 16:20:00,
2013-03-17 09:30:00,59.8,52.6,29.98,ESE,113,1.0,-999.0,77,0.00,,,0.00,Wunderground v.1.15,2013-03-17 16:30:00,
2013-03-17 09:35:00,60.1,53.2,29.98,South,180,0.0,-999.0,78,0.00,,,0.00,Wunderground v.1.15,2013-03-17 16:35:00,
2013-03-17 09:40:00,60.1,53.2,29.98,South,180,0.0,-999.0,78,0.00,,,0.00,Wunderground v.1.15,2013-03-17 16:40:00,
2013-03-17 09:45:00,61.1,53.1,29.99,South,180,1.0,-999.0,75,0.00,,,0.00,Wunderground v.1.15,2013-03-17 16:45:00,
2013-03-17 09:55:00,61.9,53.9,29.99,South,180,1.0,-999.0,75,0.00,,,0.00,Wunderground v.1.15,2013-03-17 16:55:00,
2013-03-17 10:00:00,61.9,53.9,29.99,South,180,1.0,-999.0,75,0.00,,,0.00,Wunderground v.1.15,2013-03-17 17:00:00,
2013-03-17 10:05:00,60.7,53.1,30.00,SSW,203,2.0,-999.0,76,0.00,,,0.00,Wunderground v.1.15,2013-03-17 17:05:00,
2013-03-17 10:10:00,60.7,53.1,30.00,SSW,203,2.0,-999.0,76,0.00,,,0.00,Wunderground v.1.15,2013-03-17 17:10:00,
2013-03-17 10:15:00,59.9,53.0,30.00,SW,225,2.0,-999.0,78,0.00,,,0.00,Wunderground v.1.15,2013-03-17 17:15:00,
2013-03-17 10:20:00,59.9,53.0,30.00,SW,225,2.0,-999.0,78,0.00,,,0.00,Wunderground v.1.15,2013-03-17 17:20:00,
2013-03-17 10:25:00,59.9,52.7,30.00,South,180,2.0,-999.0,77,0.00,,,0.00,Wunderground v.1.15,2013-03-17 17:25:00,
2013-03-17 10:35:00,60.3,53.1,29.99,SSW,203,2.0,-999.0,77,0.00,,,0.00,Wunderground v.1.15,2013-03-17 17:35:00,
2013-03-17 10:45:00,60.1,53.2,30.00,SW,225,4.0,-999.0,78,0.00,,,0.00,Wunderground v.1.15,2013-03-17 17:45:00,
2013-03-17 10:50:00,60.1,53.2,30.00,SW,225,4.0,-999.0,78,0.00,,,0.00,Wunderground v.1.15,2013-03-17 17:50:00,
2013-03-17 10:55:00,60.6,53.3,30.00,WSW,248,3.0,-999.0,77,0.00,,,0.00,Wunderground v.1.15,2013-03-17 17:55:00,
2013-03-17 11:05:00,61.4,53.4,30.00,SW,225,2.0,-999.0,75,0.00,,,0.00,Wunderground v.1.15,2013-03-17 18:05:00,
2013-03-17 11:10:00,61.4,53.4,30.00,SW,225,2.0,-999.0,75,0.00,,,0.00,Wunderground v.1.15,2013-03-17 18:10:00,
2013-03-17 11:15:00,61.8,53.4,30.00,South,180,2.0,-999.0,74,0.00,,,0.00,Wunderground v.1.15,2013-03-17 18:15:00,
2013-03-17 11:20:00,61.8,53.4,30.00,South,180,2.0,-999.0,74,0.00,,,0.00,Wunderground v.1.15,2013-03-17 18:20:00,
2013-03-17 11:25:00,62.0,53.6,30.00,SW,225,3.0,-999.0,74,0.00,,,0.00,Wunderground v.1.15,2013-03-17 18:25:00,
2013-03-17 11:30:00,62.0,53.6,30.00,SW,225,3.0,-999.0,74,0.00,,,0.00,Wunderground v.1.15,2013-03-17 18:30:00,
2013-03-17 11:35:00,62.1,53.3,30.00,SW,225,4.0,-999.0,73,0.00,,,0.00,Wunderground v.1.15,2013-03-17 18:35:00,
2013-03-17 11:40:00,62.1,53.3,30.00,SW,225,4.0,-999.0,73,0.00,,,0.00,Wunderground v.1.15,2013-03-17 18:40:00,
2013-03-17 11:45:00,61.6,53.2,30.00,SW,225,4.0,-999.0,74,0.00,,,0.00,Wunderground v.1.15,2013-03-17 18:45:00,
2013-03-17 11:55:00,61.7,53.3,30.00,SW,225,3.0,-999.0,74,0.00,,,0.00,Wunderground v.1.15,2013-03-17 18:55:00,
2013-03-17 12:00:00,61.7,53.3,30.00,SW,225,3.0,-999.0,74,0.00,,,0.00,Wunderground v.1.15,2013-03-17 19:00:00,
2013-03-17 12:10:00,62.2,53.4,30.00,SSW,203,4.0,-999.0,73,0.00,,,0.00,Wunderground v.1.15,2013-03-17 19:10:00,
2013-03-17 12:15:00,62.3,53.2,29.99,SSW,203,4.0,-999.0,72,0.00,,,0.00,Wunderground v.1.15,2013-03-17 19:15:00,
2013-03-17 12:20:00,62.3,53.2,29.99,SSW,203,4.0,-999.0,72,0.00,,,0.00,Wunderground v.1.15,2013-03-17 19:20:00,
2013-03-17 12:25:00,62.2,53.4,29.99,SW,225,3.0,-999.0,73,0.00,,,0.00,Wunderground v.1.15,2013-03-17 19:25:00,
2013-03-17 12:30:00,62.2,53.4,29.99,SW,225,3.0,-999.0,73,0.00,,,0.00,Wunderground v.1.15,2013-03-17 19:30:00,
2013-03-17 12:35:00,62.9,53.7,29.99,SW,225,2.0,-999.0,72,0.00,,,0.00,Wunderground v.1.15,2013-03-17 19:35:00,
2013-03-17 12:40:00,62.9,53.7,29.99,SW,225,2.0,-999.0,72,0.00,,,0.00,Wunderground v.1.15,2013-03-17 19:40:00,
2013-03-17 12:45:00,63.0,53.8,29.99,SW,225,4.0,-999.0,72,0.00,,,0.00,Wunderground v.1.15,2013-03-17 19:45:00,
2013-03-17 12:50:00,63.0,53.8,29.99,SW,225,4.0,-999.0,72,0.00,,,0.00,Wunderground v.1.15,2013-03-17 19:50:00,
2013-03-17 12:55:00,62.6,53.8,29.98,SW,225,4.0,-999.0,73,0.00,,,0.00,Wunderground v.1.15,2013-03-17 19:55:00,
2013-03-17 13:00:00,62.6,53.8,29.98,SW,225,4.0,-999.0,73,0.00,,,0.00,Wunderground v.1.15,2013-03-17 20:00:00,
2013-03-17 13:05:00,62.9,53.7,29.98,SW,225,3.0,-999.0,72,0.00,,,0.00,Wunderground v.1.15,2013-03-17 20:05:00,
2013-03-17 13:10:00,62.9,53.7,29.98,SW,225,3.0,-999.0,72,0.00,,,0.00,Wunderground v.1.15,2013-03-17 20:10:00,
2013-03-17 13:15:00,63.3,54.1,29.97,SW,225,2.0,-999.0,72,0.00,,,0.00,Wunderground v.1.15,2013-03-17 20:15:00,
2013-03-17 13:20:00,63.3,54.1,29.97,SW,225,2.0,-999.0,72,0.00,,,0.00,Wunderground v.1.15,2013-03-17 20:20:00,
2013-03-17 13:25:00,63.6,54.0,29.97,SSW,203,4.0,-999.0,71,0.00,,,0.00,Wunderground v.1.15,2013-03-17 20:25:00,
2013-03-17 13:30:00,63.6,54.0,29.97,SSW,203,4.0,-999.0,71,0.00,,,0.00,Wunderground v.1.15,2013-03-17 20:30:00,
2013-03-17 13:35:00,64.1,54.1,29.97,SW,225,3.0,-999.0,70,0.00,,,0.00,Wunderground v.1.15,2013-03-17 20:35:00,
2013-03-17 13:40:00,64.1,54.1,29.97,SW,225,3.0,-999.0,70,0.00,,,0.00,Wunderground v.1.15,2013-03-17 20:40:00,
2013-03-17 13:45:00,64.0,54.4,29.96,SW,225,2.0,-999.0,71,0.00,,,0.00,Wunderground v.1.15,2013-03-17 20:45:00,
2013-03-17 13:50:00,64.0,54.4,29.96,SW,225,2.0,-999.0,71,0.00,,,0.00,Wunderground v.1.15,2013-03-17 20:50:00,
2013-03-17 13:55:00,64.8,54.4,29.96,SSW,203,4.0,-999.0,69,0.00,,,0.00,Wunderground v.1.15,2013-03-17 20:55:00,
2013-03-17 14:00:00,64.8,54.4,29.96,SSW,203,4.0,-999.0,69,0.00,,,0.00,Wunderground v.1.15,2013-03-17 21:00:00,
2013-03-17 14:05:00,64.3,54.3,29.95,SW,225,4.0,-999.0,70,0.00,,,0.00,Wunderground v.1.15,2013-03-17 21:05:00,
2013-03-17 14:10:00,64.3,54.3,29.95,SW,225,4.0,-999.0,70,0.00,,,0.00,Wunderground v.1.15,2013-03-17 21:10:00,
2013-03-17 14:15:00,64.9,54.1,29.95,SW,225,3.0,-999.0,68,0.00,,,0.00,Wunderground v.1.15,2013-03-17 21:15:00,
2013-03-17 14:20:00,64.9,54.1,29.95,SW,225,3.0,-999.0,68,0.00,,,0.00,Wunderground v.1.15,2013-03-17 21:20:00,
2013-03-17 14:25:00,63.9,53.9,29.94,South,180,5.0,-999.0,70,0.00,,,0.00,Wunderground v.1.15,2013-03-17 21:25:00,
2013-03-17 14:30:00,63.9,53.9,29.94,South,180,5.0,-999.0,70,0.00,,,0.00,Wunderground v.1.15,2013-03-17 21:30:00,
2013-03-17 14:35:00,64.1,53.7,29.94,SW,225,4.0,-999.0,69,0.00,,,0.00,Wunderground v.1.15,2013-03-17 21:35:00,
2013-03-17 14:40:00,64.1,53.7,29.94,SW,225,4.0,-999.0,69,0.00,,,0.00,Wunderground v.1.15,2013-03-17 21:40:00,
2013-03-17 14:45:00,63.9,53.9,29.94,SW,225,4.0,-999.0,70,0.00,,,0.00,Wunderground v.1.15,2013-03-17 21:45:00,
2013-03-17 14:50:00,63.9,53.9,29.94,SW,225,4.0,-999.0,70,0.00,,,0.00,Wunderground v.1.15,2013-03-17 21:50:00,
2013-03-17 14:55:00,64.1,54.5,29.94,SW,225,4.0,-999.0,71,0.00,,,0.00,Wunderground v.1.15,2013-03-17 21:55:00,
2013-03-17 15:00:00,64.1,54.5,29.94,SW,225,4.0,-999.0,71,0.00,,,0.00,Wunderground v.1.15,2013-03-17 22:00:00,
2013-03-17 15:05:00,64.4,54.4,29.94,SW,225,5.0,-999.0,70,0.00,,,0.00,Wunderground v.1.15,2013-03-17 22:05:00,
2013-03-17 15:10:00,64.4,54.4,29.94,SW,225,5.0,-999.0,70,0.00,,,0.00,Wunderground v.1.15,2013-03-17 22:10:00,
2013-03-17 15:15:00,63.8,54.6,29.93,SW,225,5.0,-999.0,72,0.00,,,0.00,Wunderground v.1.15,2013-03-17 22:15:00,
2013-03-17 15:20:00,63.8,54.6,29.93,SW,225,5.0,-999.0,72,0.00,,,0.00,Wunderground v.1.15,2013-03-17 22:20:00,
2013-03-17 15:21:00,63.9,54.3,29.93,West,266,5.0,5.0,71,0.00,,,0.00,Wunderground v.1.15,2013-03-17 22:21:00,
2013-03-17 15:25:00,64.5,54.5,29.93,WSW,242,4.0,8.0,70,0.00,,,0.00,Wunderground v.1.15,2013-03-17 22:25:00,
2013-03-17 15:30:00,64.6,54.2,29.93,SSW,212,5.0,5.0,69,0.00,,,0.00,Wunderground v.1.15,2013-03-17 22:30:00,
2013-03-17 15:35:00,64.2,53.8,29.93,SSW,203,5.0,-999.0,69,0.00,,,0.00,Wunderground v.1.15,2013-03-17 22:35:00,
2013-03-17 15:40:00,64.2,53.8,29.93,SSW,207,5.0,6.0,69,0.00,,,0.00,Wunderground v.1.15,2013-03-17 22:40:00,
2013-03-17 15:45:00,64.6,53.8,29.93,SW,223,4.0,6.0,68,0.00,,,0.00,Wunderground v.1.15,2013-03-17 22:45:00,
2013-03-17 15:50:00,64.7,54.3,29.94,SW,236,4.0,4.0,69,0.00,,,0.00,Wunderground v.1.15,2013-03-17 22:50:00,
2013-03-17 15:55:00,64.8,54.4,29.93,SSW,202,4.0,4.0,69,0.00,,,0.00,Wunderground v.1.15,2013-03-17 22:55:00,
2013-03-17 16:00:00,64.9,54.1,29.93,SSW,207,4.0,5.0,68,0.00,,,0.00,Wunderground v.1.15,2013-03-17 23:00:00,
2013-03-17 16:05:00,64.9,54.1,29.93,SW,225,4.0,-999.0,68,0.00,,,0.00,Wunderground v.1.15,2013-03-17 23:05:00,
2013-03-17 16:10:00,64.8,54.4,29.93,South,182,4.0,4.0,69,0.00,,,0.00,Wunderground v.1.15,2013-03-17 23:10:00,
2013-03-17 16:15:00,64.4,54.0,29.93,SW,217,5.0,6.0,69,0.00,,,0.00,Wunderground v.1.15,2013-03-17 23:15:00,
2013-03-17 16:20:00,63.9,53.5,29.94,SW,233,5.0,5.0,69,0.00,,,0.00,Wunderground v.1.15,2013-03-17 23:20:00,
2013-03-17 16:25:00,63.6,53.6,29.94,SW,220,5.0,6.0,70,0.00,,,0.00,Wunderground v.1.15,2013-03-17 23:25:00,
2013-03-17 16:30:00,63.6,54.0,29.94,WSW,238,5.0,5.0,71,0.00,,,0.00,Wunderground v.1.15,2013-03-17 23:30:00,
2013-03-17 16:35:00,63.6,54.0,29.94,SSW,203,4.0,7.0,71,0.00,,,0.00,Wunderground v.1.15,2013-03-17 23:35:00,
2013-03-17 16:40:00,63.7,54.1,29.94,SW,221,5.0,10.0,71,0.00,,,0.00,Wunderground v.1.15,2013-03-17 23:40:00,
2013-03-17 16:45:00,63.6,54.0,29.93,SSW,201,5.0,10.0,71,0.00,,,0.00,Wunderground v.1.15,2013-03-17 23:45:00,
2013-03-17 16:50:00,63.7,53.7,29.93,South,190,5.0,5.0,70,0.00,,,0.00,Wunderground v.1.15,2013-03-17 23:50:00,
2013-03-17 16:55:00,64.3,53.9,29.93,SSW,203,3.0,-999.0,69,0.00,,,0.00,Wunderground v.1.15,2013-03-17 23:55:00,
2013-03-17 17:00:00,64.3,53.9,29.93,SSW,202,3.0,9.0,69,0.00,,,0.00,Wunderground v.1.15,2013-03-18 00:00:00,
2013-03-17 17:05:00,63.5,53.5,29.93,SSW,203,5.0,-999.0,70,0.00,,,0.00,Wunderground v.1.15,2013-03-18 00:05:00,
2013-03-17 17:10:00,63.5,53.5,29.93,SSW,207,5.0,5.0,70,0.00,,,0.00,Wunderground v.1.15,2013-03-18 00:10:00,
2013-03-17 17:15:00,63.0,53.4,29.94,SSW,203,4.0,-999.0,71,0.00,,,0.00,Wunderground v.1.15,2013-03-18 00:15:00,
2013-03-17 17:20:00,63.0,53.4,29.94,SSW,203,4.0,-999.0,71,0.00,,,0.00,Wunderground v.1.15,2013-03-18 00:20:00,
2013-03-17 17:25:00,62.9,53.7,29.93,SSW,203,3.0,-999.0,72,0.00,,,0.00,Wunderground v.1.15,2013-03-18 00:25:00,
2013-03-17 17:30:00,62.9,53.7,29.93,SSW,203,3.0,-999.0,72,0.00,,,0.00,Wunderground v.1.15,2013-03-18 00:30:00,
2013-03-17 17:35:00,62.6,53.8,29.93,SSW,203,3.0,-999.0,73,0.00,,,0.00,Wunderground v.1.15,2013-03-18 00:35:00,
2013-03-17 17:40:00,62.6,53.8,29.93,SSW,203,3.0,-999.0,73,0.00,,,0.00,Wunderground v.1.15,2013-03-18 00:40:00,
2013-03-17 17:45:00,62.7,53.9,29.93,SSW,203,2.0,-999.0,73,0.00,,,0.00,Wunderground v.1.15,2013-03-18 00:45:00,
2013-03-17 17:50:00,62.7,53.9,29.93,SSW,203,2.0,-999.0,73,0.00,,,0.00,Wunderground v.1.15,2013-03-18 00:50:00,
2013-03-17 17:55:00,61.9,53.5,29.93,SSW,203,3.0,-999.0,74,0.00,,,0.00,Wunderground v.1.15,2013-03-18 00:55:00,
2013-03-17 18:00:00,61.9,53.5,29.93,SSW,203,3.0,-999.0,74,0.00,,,0.00,Wunderground v.1.15,2013-03-18 01:00:00,
2013-03-17 18:05:00,61.2,53.6,29.94,SSW,203,3.0,-999.0,76,0.00,,,0.00,Wunderground v.1.15,2013-03-18 01:05:00,
2013-03-17 18:10:00,61.2,53.6,29.94,SSW,203,3.0,-999.0,76,0.00,,,0.00,Wunderground v.1.15,2013-03-18 01:10:00,
2013-03-17 18:15:00,60.5,53.6,29.94,SW,225,3.0,-999.0,78,0.00,,,0.00,Wunderground v.1.15,2013-03-18 01:15:00,
2013-03-17 18:20:00,60.5,53.6,29.94,SW,225,3.0,-999.0,78,0.00,,,0.00,Wunderground v.1.15,2013-03-18 01:20:00,
2013-03-17 18:25:00,59.8,53.3,29.95,SSW,203,3.0,-999.0,79,0.00,,,0.00,Wunderground v.1.15,2013-03-18 01:25:00,
2013-03-17 18:30:00,59.8,53.3,29.95,SSW,203,3.0,-999.0,79,0.00,,,0.00,Wunderground v.1.15,2013-03-18 01:30:00,
2013-03-17 18:35:00,59.3,53.5,29.95,SSW,203,3.0,-999.0,81,0.00,,,0.00,Wunderground v.1.15,2013-03-18 01:35:00,
2013-03-17 18:40:00,59.3,53.5,29.95,SSW,203,3.0,-999.0,81,0.00,,,0.00,Wunderground v.1.15,2013-03-18 01:40:00,
2013-03-17 18:45:00,58.7,52.9,29.95,SSW,203,2.0,-999.0,81,0.00,,,0.00,Wunderground v.1.15,2013-03-18 01:45:00,
2013-03-17 18:50:00,58.7,52.9,29.95,SSW,203,2.0,-999.0,81,0.00,,,0.00,Wunderground v.1.15,2013-03-18 01:50:00,
2013-03-17 18:55:00,58.3,52.8,29.95,South,180,2.0,-999.0,82,0.00,,,0.00,Wunderground v.1.15,2013-03-18 01:55:00,
2013-03-17 19:00:00,58.3,52.8,29.95,South,180,2.0,-999.0,82,0.00,,,0.00,Wunderground v.1.15,2013-03-18 02:00:00,
2013-03-17 19:05:00,57.9,52.8,29.96,SSW,203,2.0,-999.0,83,0.00,,,0.00,Wunderground v.1.15,2013-03-18 02:05:00,
2013-03-17 19:10:00,57.9,52.8,29.96,SSW,203,2.0,-999.0,83,0.00,,,0.00,Wunderground v.1.15,2013-03-18 02:10:00,
2013-03-17 19:15:00,57.8,52.7,29.95,South,180,1.0,-999.0,83,0.00,,,0.00,Wunderground v.1.15,2013-03-18 02:15:00,
2013-03-17 19:20:00,57.8,52.7,29.95,South,180,1.0,-999.0,83,0.00,,,0.00,Wunderground v.1.15,2013-03-18 02:20:00,
2013-03-17 19:25:00,57.6,52.8,29.95,SSW,203,1.0,-999.0,84,0.00,,,0.00,Wunderground v.1.15,2013-03-18 02:25:00,
2013-03-17 19:30:00,57.6,52.8,29.95,SSW,203,1.0,-999.0,84,0.00,,,0.00,Wunderground v.1.15,2013-03-18 02:30:00,
2013-03-17 19:35:00,57.6,52.8,29.96,South,190,0.0,2.0,84,0.00,,,0.00,Wunderground v.1.15,2013-03-18 02:35:00,
2013-03-17 19:40:00,57.5,52.7,29.95,South,190,1.0,2.0,84,0.00,,,0.00,Wunderground v.1.15,2013-03-18 02:40:00,
2013-03-17 19:45:00,57.5,52.7,29.96,South,190,1.0,1.0,84,0.00,,,0.00,Wunderground v.1.15,2013-03-18 02:45:00,
2013-03-17 19:50:00,57.5,52.7,29.95,South,190,1.0,1.0,84,0.00,,,0.00,Wunderground v.1.15,2013-03-18 02:50:00,
2013-03-17 19:55:00,57.5,52.7,29.95,South,190,1.0,3.0,84,0.00,,,0.00,Wunderground v.1.15,2013-03-18 02:55:00,
2013-03-17 20:00:00,57.4,52.6,29.96,South,180,0.0,-999.0,84,0.00,,,0.00,Wunderground v.1.15,2013-03-18 03:00:00,
2013-03-17 20:05:00,57.3,52.5,29.96,South,171,1.0,2.0,84,0.00,,,0.00,Wunderground v.1.15,2013-03-18 03:05:00,
2013-03-17 20:10:00,57.2,52.7,29.96,South,171,1.0,1.0,85,0.00,,,0.00,Wunderground v.1.15,2013-03-18 03:10:00,
2013-03-17 20:15:00,57.1,52.6,29.96,SSE,158,1.0,-999.0,85,0.00,,,0.00,Wunderground v.1.15,2013-03-18 03:15:00,
2013-03-17 20:20:00,57.1,52.6,29.96,SSE,154,1.0,1.0,85,0.00,,,0.00,Wunderground v.1.15,2013-03-18 03:20:00,
2013-03-17 20:25:00,57.1,52.6,29.95,South,180,1.0,-999.0,85,0.00,,,0.00,Wunderground v.1.15,2013-03-18 03:25:00,
2013-03-17 20:26:00,57.1,52.6,29.96,South,188,1.0,1.0,85,0.00,,,0.00,Wunderground v.1.15,2013-03-18 03:26:00,
2013-03-17 20:30:00,57.1,52.6,29.96,South,188,1.0,1.0,85,0.00,,,0.00,Wunderground v.1.15,2013-03-18 03:30:00,
2013-03-17 20:35:00,56.9,52.4,29.96,South,180,0.0,-999.0,85,0.00,,,0.00,Wunderground v.1.15,2013-03-18 03:35:00,
2013-03-17 20:36:00,57.0,52.5,29.96,South,187,0.0,1.0,85,0.00,,,0.00,Wunderground v.1.15,2013-03-18 03:36:00,
2013-03-17 20:40:00,56.9,52.4,29.96,East,89,0.0,3.0,85,0.00,,,0.00,Wunderground v.1.15,2013-03-18 03:40:00,
2013-03-17 20:45:00,56.9,52.4,29.96,ESE,113,0.0,3.0,85,0.00,,,0.00,Wunderground v.1.15,2013-03-18 03:45:00,
2013-03-17 20:50:00,57.0,52.5,29.96,SE,146,0.0,0.0,85,0.00,,,0.00,Wunderground v.1.15,2013-03-18 03:50:00,
2013-03-17 20:55:00,57.1,52.6,29.96,SSE,166,0.0,2.0,85,0.00,,,0.00,Wunderground v.1.15,2013-03-18 03:55:00,
2013-03-17 21:00:00,57.2,52.7,29.97,SE,136,1.0,1.0,85,0.00,,,0.00,Wunderground v.1.15,2013-03-18 04:00:00,
2013-03-17 21:05:00,57.2,52.7,29.97,SSW,194,1.0,3.0,85,0.00,,,0.00,Wunderground v.1.15,2013-03-18 04:05:00,
2013-03-17 21:10:00,57.1,52.6,29.97,SSE,147,2.0,2.0,85,0.00,,,0.00,Wunderground v.1.15,2013-03-18 04:10:00,
2013-03-17 21:15:00,57.2,52.7,29.97,SSW,203,2.0,-999.0,85,0.00,,,0.00,Wunderground v.1.15,2013-03-18 04:15:00,
2013-03-17 21:20:00,57.2,52.7,29.97,SSW,198,2.0,2.0,85,0.00,,,0.00,Wunderground v.1.15,2013-03-18 04:20:00,
2013-03-17 21:25:00,57.3,52.8,29.97,SSE,161,2.0,2.0,85,0.00,,,0.00,Wunderground v.1.15,2013-03-18 04:25:00,
2013-03-17 21:30:00,57.3,52.8,29.97,SW,225,1.0,-999.0,85,0.00,,,0.00,Wunderground v.1.15,2013-03-18 04:30:00,
2013-03-17 21:35:00,57.2,52.7,29.97,South,177,2.0,5.0,85,0.00,,,0.00,Wunderground v.1.15,2013-03-18 04:35:00,
2013-03-17 21:40:00,57.2,52.7,29.98,South,180,1.0,-999.0,85,0.00,,,0.00,Wunderground v.1.15,2013-03-18 04:40:00,
2013-03-17 21:45:00,57.2,52.7,29.98,South,173,1.0,2.0,85,0.00,,,0.00,Wunderground v.1.15,2013-03-18 04:45:00,
2013-03-17 21:50:00,57.1,52.6,29.97,SSE,160,1.0,2.0,85,0.00,,,0.00,Wunderground v.1.15,2013-03-18 04:50:00,
2013-03-17 21:55:00,57.1,52.6,29.98,SE,124,1.0,2.0,85,0.00,,,0.00,Wunderground v.1.15,2013-03-18 04:55:00,
2013-03-17 22:00:00,56.9,52.4,29.97,SSE,164,2.0,4.0,85,0.00,,,0.00,Wunderground v.1.15,2013-03-18 05:00:00,
2013-03-17 22:05:00,56.9,52.4,29.97,South,180,1.0,-999.0,85,0.00,,,0.00,Wunderground v.1.15,2013-03-18 05:05:00,
2013-03-17 22:10:00,56.9,52.4,29.97,South,171,2.0,3.0,85,0.00,,,0.00,Wunderground v.1.15,2013-03-18 05:10:00,
2013-03-17 22:15:00,56.9,52.4,29.97,South,180,1.0,-999.0,85,0.00,,,0.00,Wunderground v.1.15,2013-03-18 05:15:00,
2013-03-17 22:20:00,56.9,52.4,29.97,South,173,1.0,1.0,85,0.00,,,0.00,Wunderground v.1.15,2013-03-18 05:20:00,
2013-03-17 22:25:00,56.9,52.4,29.98,SSE,162,1.0,1.0,85,0.00,,,0.00,Wunderground v.1.15,2013-03-18 05:25:00,
2013-03-17 22:30:00,57.0,52.5,29.98,South,169,1.0,2.0,85,0.00,,,0.00,Wunderground v.1.15,2013-03-18 05:30:00,
2013-03-17 22:35:00,57.0,52.5,29.98,ESE,120,2.0,2.0,85,0.00,,,0.00,Wunderground v.1.15,2013-03-18 05:35:00,
2013-03-17 22:40:00,57.0,52.5,29.99,ESE,113,1.0,1.0,85,0.00,,,0.00,Wunderground v.1.15,2013-03-18 05:40:00,
2013-03-17 22:45:00,57.0,52.5,29.99,SSE,167,1.0,1.0,85,0.00,,,0.00,Wunderground v.1.15,2013-03-18 05:45:00,
2013-03-17 22:50:00,57.0,52.5,29.99,SE,146,1.0,2.0,85,0.00,,,0.00,Wunderground v.1.15,2013-03-18 05:50:00,
2013-03-17 22:55:00,57.0,52.5,29.99,East,94,1.0,2.0,85,0.00,,,0.00,Wunderground v.1.15,2013-03-18 05:55:00,
2013-03-17 23:00:00,57.1,52.6,29.99,ESE,104,1.0,1.0,85,0.00,,,0.00,Wunderground v.1.15,2013-03-18 06:00:00,
2013-03-17 23:05:00,57.1,52.6,29.99,SE,128,1.0,1.0,85,0.00,,,0.00,Wunderground v.1.15,2013-03-18 06:05:00,
2013-03-17 23:10:00,57.1,52.6,29.98,South,186,1.0,3.0,85,0.00,,,0.00,Wunderground v.1.15,2013-03-18 06:10:00,
2013-03-17 23:15:00,57.1,52.6,29.99,South,180,1.0,-999.0,85,0.00,,,0.00,Wunderground v.1.15,2013-03-18 06:15:00,
2013-03-17 23:20:00,57.1,52.6,29.99,SSE,157,1.0,3.0,85,0.00,,,0.00,Wunderground v.1.15,2013-03-18 06:20:00,
2013-03-17 23:25:00,57.2,52.7,29.99,South,175,1.0,4.0,85,0.00,,,0.00,Wunderground v.1.15,2013-03-18 06:25:00,
2013-03-17 23:30:00,57.2,53.0,29.99,SSE,158,1.0,-999.0,86,0.00,,,0.00,Wunderground v.1.15,2013-03-18 06:30:00,
2013-03-17 23:35:00,57.2,53.0,29.99,SSE,163,1.0,1.0,86,0.00,,,0.00,Wunderground v.1.15,2013-03-18 06:35:00,
2013-03-17 23:40:00,57.3,53.1,29.99,SSE,163,0.0,0.0,86,0.00,,,0.00,Wunderground v.1.15,2013-03-18 06:40:00,
2013-03-17 23:45:00,57.3,52.8,29.99,South,186,1.0,3.0,85,0.00,,,0.00,Wunderground v.1.15,2013-03-18 06:45:00,
2013-03-17 23:50:00,57.3,52.8,29.99,South,173,1.0,1.0,85,0.00,,,0.00,Wunderground v.1.15,2013-03-18 06:50:00,
2013-03-17 23:55:00,57.3,52.8,29.99,South,172,0.0,1.0,85,0.00,,,0.00,Wunderground v.1.15,2013-03-18 06:55:00,